This is the latest recevied weather packets stored in our database for station/object KG0HG. If no packets are shown the sender has not sent any weather packets the latest 10 day(s).
| Time | Temp. | Humidity | Pressure | Rain* | Wind** | Luminosity | Snow |
|---|---|---|---|---|---|---|---|
| 1777597241 | 14.44° C | 57% | 1017 hPa | 0 mm | - | 1 W/m² | - |
| 1777596936 | 15° C | 56% | 1017 hPa | 0 mm | - | 4 W/m² | - |
| 1777596633 | 15° C | 57% | 1016.9 hPa | 0 mm | - | 7 W/m² | - |
| 1777596330 | 15° C | 56% | 1016.6 hPa | 0 mm | - | 10 W/m² | - |
| 1777596028 | 15.56° C | 57% | 1016.5 hPa | 0 mm | - | 13 W/m² | - |
| 1777595727 | 15.56° C | 57% | 1016.5 hPa | 0 mm | - | 15 W/m² | - |
| 1777595423 | 15.56° C | 57% | 1016.5 hPa | 0 mm | - | 16 W/m² | - |
| 1777595120 | 16.11° C | 57% | 1016.6 hPa | 0 mm | - | 32 W/m² | - |
| 1777594816 | 16.11° C | 56% | 1016.5 hPa | 0 mm | - | 38 W/m² | - |
| 1777594513 | 16.67° C | 55% | 1016 hPa | 0 mm | - | 36 W/m² | - |
| 1777594209 | 16.67° C | 54% | 1016.3 hPa | 0 mm | - | 29 W/m² | - |
| 1777593904 | 16.67° C | 51% | 1015.9 hPa | 0 mm | - | 29 W/m² | - |
| 1777593601 | 16.67° C | 48% | 1016 hPa | 0 mm | - | 36 W/m² | - |
| 1777593296 | 16.67° C | 48% | 1015.8 hPa | 0 mm | - | 41 W/m² | - |
| 1777592991 | 17.22° C | 48% | 1015.8 hPa | 0 mm | - | 36 W/m² | - |
| 1777592686 | 17.22° C | 48% | 1015.7 hPa | 0 mm | - | 36 W/m² | - |
| 1777592382 | 17.78° C | 49% | 1015.5 hPa | 0 mm | - | 46 W/m² | - |
| 1777592077 | 17.78° C | 50% | 1015.6 hPa | 0 mm | - | 55 W/m² | - |
| 1777591775 | 17.78° C | 49% | 1015.6 hPa | 0 mm | - | 117 W/m² | - |
| 1777591470 | 17.78° C | 49% | 1015.5 hPa | 0 mm | - | 65 W/m² | - |
| 1777591167 | 17.78° C | 49% | 1015.8 hPa | 0 mm | - | 85 W/m² | - |
| 1777590861 | 17.78° C | 48% | 1015.5 hPa | 0 mm | - | 76 W/m² | - |
| 1777590558 | 17.78° C | 47% | 1015.4 hPa | 0 mm | - | 69 W/m² | - |
| 1777590254 | 17.78° C | 47% | 1015.3 hPa | 0 mm | - | 48 W/m² | - |
| 1777589952 | 18.33° C | 46% | 1015.4 hPa | 0 mm | - | 47 W/m² | - |
* Rain latest hour (hover to see other rain measurements)
** Current wind speed in m/s (hover to see current wind gust speed)